RYR51AD LEPA-EDDK

Flight info

Callsign RYR51AD
Flight time 2h 2m
Altitude 36000
Route MEROS N853 LUMAS DCT MAXIR DCT LUSOL DCT BODRU DCT OKTET DCT IRMAR DCT KINES DCT VANAS DCT MOBLO DCT UBIMA DCT SOSAL DCT KORED DCT BERSU DCT DITON DCT LOKTA DCT TEDGO DCT HAREM DCT LOHRE L984 ASKIK T840 GULKO
Aircraft A320/M-SDE3FGHIRWY/LB1

Departure

Time 2026-04-21 13:47
Airport Palma de Mallorca Airport (LEPA)

Arrival

Time 2026-04-21 15:49
Airport Cologne Bonn Airport (EDDK)
Time Latitude Longitude Altitude Speed Heading
2026-04-21 13:14 39.54873 2.73541 29 ft 0 kts 47°
2026-04-21 13:37 39.54870 2.73537 30 ft 2 kts 47°
2026-04-21 13:38 39.54857 2.73521 30 ft 2 kts 34°
2026-04-21 13:38 39.54843 2.73508 30 ft 2 kts 34°
2026-04-21 13:38 39.54828 2.73498 30 ft 3 kts
2026-04-21 13:38 39.54810 2.73500 30 ft 2 kts 328°
2026-04-21 13:39 39.54808 2.73501 30 ft 0 kts 325°
2026-04-21 13:40 39.54808 2.73497 30 ft 1 kts 292°
2026-04-21 13:40 39.54804 2.73490 30 ft 2 kts 243°
2026-04-21 13:40 39.54766 2.73469 30 ft 10 kts 190°
2026-04-21 13:40 39.54680 2.73511 30 ft 16 kts 149°
2026-04-21 13:41 39.54611 2.73619 30 ft 15 kts 126°
2026-04-21 13:41 39.54603 2.73733 30 ft 15 kts 57°
2026-04-21 13:41 39.54670 2.73875 30 ft 20 kts 58°
2026-04-21 13:41 39.54742 2.74021 30 ft 19 kts 59°
2026-04-21 13:42 39.54824 2.74124 30 ft 16 kts 355°
2026-04-21 13:42 39.54918 2.74056 30 ft 15 kts 328°
2026-04-21 13:42 39.55008 2.73986 30 ft 16 kts 329°
2026-04-21 13:42 39.55079 2.73930 30 ft 21 kts 329°
2026-04-21 13:43 39.55224 2.73814 30 ft 26 kts 329°
2026-04-21 13:43 39.55380 2.73693 30 ft 27 kts 329°
2026-04-21 13:43 39.55541 2.73565 30 ft 28 kts 329°
2026-04-21 13:43 39.55676 2.73534 30 ft 14 kts 53°
2026-04-21 13:44 39.55720 2.73636 30 ft 16 kts 58°
2026-04-21 13:44 39.55793 2.73792 30 ft 21 kts 58°
2026-04-21 13:44 39.55869 2.73953 30 ft 21 kts 58°
2026-04-21 13:44 39.55941 2.74107 30 ft 19 kts 59°
2026-04-21 13:45 39.56022 2.74270 30 ft 27 kts 59°
2026-04-21 13:45 39.56123 2.74451 30 ft 21 kts 26°
2026-04-21 13:45 39.56242 2.74389 30 ft 19 kts 316°
2026-04-21 13:45 39.56232 2.74270 30 ft 1 kts 239°
2026-04-21 13:46 39.56222 2.74248 30 ft 10 kts 239°
2026-04-21 13:46 39.56046 2.73877 30 ft 84 kts 238°
2026-04-21 13:46 39.55635 2.73007 30 ft 140 kts 238°
2026-04-21 13:46 39.55069 2.71826 361 ft 158 kts 237°
2026-04-21 13:47 39.54471 2.70598 1030 ft 163 kts 236°
2026-04-21 13:47 39.53864 2.69315 1603 ft 176 kts 237°
2026-04-21 13:47 39.53187 2.67878 1908 ft 198 kts 237°
2026-04-21 13:47 39.52430 2.66270 2266 ft 217 kts 237°
2026-04-21 13:48 39.51627 2.64573 2873 ft 224 kts 237°
2026-04-21 13:48 39.50819 2.62866 3640 ft 225 kts 236°
2026-04-21 13:48 39.49940 2.61150 4393 ft 228 kts 226°
2026-04-21 13:48 39.48622 2.59929 4777 ft 249 kts 205°
2026-04-21 13:49 39.47006 2.58900 5255 ft 267 kts 205°
2026-04-21 13:49 39.45318 2.57836 6060 ft 272 kts 205°
2026-04-21 13:49 39.43574 2.56837 6867 ft 276 kts 194°
2026-04-21 13:49 39.41667 2.56808 7649 ft 278 kts 168°
2026-04-21 13:50 39.39869 2.57749 8449 ft 283 kts 146°
2026-04-21 13:50 39.38444 2.59533 9214 ft 289 kts 131°
2026-04-21 13:50 39.37139 2.61548 9967 ft 295 kts 131°
2026-04-21 13:50 39.35689 2.63485 10456 ft 309 kts 136°
2026-04-21 13:51 39.34088 2.65492 10680 ft 333 kts 137°
2026-04-21 13:51 39.32372 2.67616 11075 ft 347 kts 137°
2026-04-21 13:51 39.30610 2.69787 11736 ft 353 kts 137°
2026-04-21 13:51 39.28824 2.71996 12444 ft 357 kts 136°
2026-04-21 13:52 39.27369 2.74609 13108 ft 365 kts 114°
2026-04-21 13:52 39.26833 2.77812 13763 ft 370 kts 92°
2026-04-21 13:52 39.26802 2.81153 14365 ft 374 kts 90°
2026-04-21 13:52 39.26796 2.84525 14972 ft 378 kts 90°
2026-04-21 13:53 39.26993 2.87921 15572 ft 382 kts 79°
2026-04-21 13:53 39.27686 2.91237 16176 ft 385 kts 68°
2026-04-21 13:53 39.28851 2.94357 16774 ft 387 kts 58°
2026-04-21 13:53 39.30205 2.97379 17370 ft 391 kts 59°
2026-04-21 13:54 39.31569 3.00436 17968 ft 395 kts 59°
2026-04-21 13:54 39.32943 3.03529 18531 ft 398 kts 59°
2026-04-21 13:54 39.34327 3.06644 19061 ft 402 kts 59°
2026-04-21 13:54 39.35723 3.09790 19584 ft 405 kts 59°
2026-04-21 13:55 39.37129 3.12964 20117 ft 409 kts 59°
2026-04-21 13:55 39.38546 3.16170 20646 ft 412 kts 59°
2026-04-21 13:55 39.39970 3.19402 21166 ft 416 kts 59°
2026-04-21 13:55 39.41409 3.22665 21693 ft 419 kts 59°
2026-04-21 13:56 39.42861 3.25953 22210 ft 423 kts 58°
2026-04-21 13:56 39.44342 3.29253 22706 ft 426 kts 58°
2026-04-21 13:56 39.45861 3.32559 23194 ft 429 kts 57°
2026-04-21 13:56 39.47404 3.35881 23641 ft 432 kts 57°
2026-04-21 13:57 39.48962 3.39227 24029 ft 435 kts 57°
2026-04-21 13:57 39.50506 3.42550 24411 ft 438 kts 57°
2026-04-21 13:57 39.52075 3.45943 24789 ft 440 kts 57°
2026-04-21 13:57 39.53646 3.49360 25166 ft 443 kts 57°
2026-04-21 13:58 39.55220 3.52798 25534 ft 445 kts 57°
2026-04-21 13:58 39.56804 3.56257 25896 ft 447 kts 57°
2026-04-21 13:58 39.58392 3.59737 26251 ft 450 kts 57°
2026-04-21 13:58 39.59986 3.63238 26619 ft 452 kts 57°
2026-04-21 13:59 39.61587 3.66758 26950 ft 454 kts 57°
2026-04-21 13:59 39.63195 3.70299 27290 ft 457 kts 57°
2026-04-21 13:59 39.64813 3.73856 27626 ft 459 kts 57°
2026-04-21 13:59 39.66441 3.77431 27961 ft 461 kts 57°
2026-04-21 14:00 39.68074 3.81020 28290 ft 463 kts 57°
2026-04-21 14:00 39.69711 3.84629 28603 ft 465 kts 57°
2026-04-21 14:00 39.71333 3.88213 28907 ft 467 kts 57°
2026-04-21 14:00 39.72980 3.91859 29210 ft 469 kts 57°
2026-04-21 14:01 39.74632 3.95520 29489 ft 471 kts 57°
2026-04-21 14:01 39.76291 3.99198 29787 ft 472 kts 57°
2026-04-21 14:01 39.77955 4.02891 30055 ft 474 kts 58°
2026-04-21 14:01 39.79622 4.06597 30282 ft 476 kts 58°
2026-04-21 14:02 39.81295 4.10319 30509 ft 477 kts 58°
2026-04-21 14:02 39.83083 4.13949 30724 ft 476 kts 50°
2026-04-21 14:02 39.85279 4.17144 30972 ft 473 kts 40°
2026-04-21 14:03 39.90656 4.21842 31583 ft 462 kts 20°
2026-04-21 14:03 39.93664 4.23241 31879 ft 457 kts 11°
2026-04-21 14:03 39.96765 4.24060 32199 ft 454 kts
2026-04-21 14:03 39.99872 4.24785 32499 ft 453 kts
2026-04-21 14:04 40.02974 4.25514 32793 ft 453 kts
2026-04-21 14:04 40.06075 4.26246 33082 ft 452 kts
2026-04-21 14:04 40.09167 4.26977 33394 ft 451 kts
2026-04-21 14:04 40.12256 4.27706 33691 ft 451 kts
2026-04-21 14:05 40.15338 4.28435 33984 ft 450 kts
2026-04-21 14:05 40.18416 4.29162 34245 ft 449 kts
2026-04-21 14:05 40.21492 4.29885 34495 ft 449 kts
2026-04-21 14:05 40.24565 4.30610 34732 ft 449 kts
2026-04-21 14:06 40.27636 4.31338 34964 ft 448 kts
2026-04-21 14:06 40.30702 4.32067 35191 ft 448 kts
2026-04-21 14:06 40.33768 4.32795 35414 ft 447 kts
2026-04-21 14:06 40.36829 4.33522 35630 ft 447 kts
2026-04-21 14:07 40.39891 4.34247 35840 ft 447 kts
2026-04-21 14:07 40.42911 4.34965 35948 ft 447 kts
2026-04-21 14:07 40.45972 4.35695 35972 ft 446 kts
2026-04-21 14:08 40.52077 4.37154 35962 ft 446 kts
2026-04-21 14:08 40.58173 4.38613 35958 ft 445 kts
2026-04-21 14:09 40.64274 4.40071 35964 ft 445 kts
2026-04-21 14:09 40.70371 4.41530 35963 ft 445 kts
2026-04-21 14:10 40.76468 4.42995 35966 ft 445 kts
2026-04-21 14:10 40.82564 4.44459 35962 ft 445 kts
2026-04-21 14:11 40.88661 4.45920 35965 ft 445 kts
2026-04-21 14:11 40.94751 4.47391 35968 ft 445 kts
2026-04-21 14:12 41.00842 4.48873 35970 ft 445 kts
2026-04-21 14:12 41.06932 4.50358 35972 ft 445 kts
2026-04-21 14:13 41.13018 4.51846 35972 ft 445 kts
2026-04-21 14:13 41.19104 4.53325 35969 ft 445 kts
2026-04-21 14:14 41.25188 4.54811 35967 ft 444 kts
2026-04-21 14:14 41.31271 4.56299 35969 ft 444 kts
2026-04-21 14:15 41.37351 4.57780 35967 ft 444 kts
2026-04-21 14:15 41.43427 4.59271 35965 ft 444 kts
2026-04-21 14:16 41.49465 4.60764 35966 ft 444 kts
2026-04-21 14:16 41.55542 4.62263 35961 ft 444 kts
2026-04-21 14:17 41.61618 4.63769 35960 ft 444 kts
2026-04-21 14:17 41.67687 4.65267 35967 ft 444 kts
2026-04-21 14:18 41.73692 4.67313 35969 ft 451 kts 18°
2026-04-21 14:18 41.79236 4.71388 35958 ft 457 kts 26°
2026-04-21 14:19 41.84682 4.75778 35949 ft 457 kts 26°
2026-04-21 14:19 41.90134 4.80165 35947 ft 457 kts 26°
2026-04-21 14:20 41.95585 4.84559 35943 ft 457 kts 26°
2026-04-21 14:20 42.01033 4.88960 35946 ft 457 kts 26°
2026-04-21 14:21 42.06476 4.93371 35944 ft 457 kts 26°
2026-04-21 14:21 42.11915 4.97793 35950 ft 457 kts 26°
2026-04-21 14:22 42.17358 5.02217 35952 ft 457 kts 26°
2026-04-21 14:22 42.22797 5.06645 35954 ft 457 kts 26°
2026-04-21 14:23 42.28232 5.11083 35954 ft 456 kts 26°
2026-04-21 14:23 42.33661 5.15531 35954 ft 456 kts 26°
2026-04-21 14:24 42.39086 5.19988 35952 ft 456 kts 26°
2026-04-21 14:24 42.44508 5.24448 35951 ft 456 kts 26°
2026-04-21 14:25 42.49894 5.28867 35954 ft 455 kts 26°
2026-04-21 14:25 42.55306 5.33327 35950 ft 455 kts 26°
2026-04-21 14:26 42.60713 5.37811 35952 ft 455 kts 26°
2026-04-21 14:26 42.66116 5.42290 35946 ft 455 kts 26°
2026-04-21 14:27 42.71772 5.45814 35948 ft 444 kts 12°
2026-04-21 14:27 42.77632 5.48449 35944 ft 443 kts 12°
2026-04-21 14:28 42.83492 5.51073 35945 ft 443 kts 12°
2026-04-21 14:28 42.89352 5.53711 35944 ft 443 kts 12°
2026-04-21 14:29 42.95202 5.56353 35944 ft 443 kts 12°
2026-04-21 14:29 43.01057 5.58994 35935 ft 443 kts 12°
2026-04-21 14:30 43.06908 5.61645 35931 ft 443 kts 12°
2026-04-21 14:30 43.12754 5.64297 35929 ft 443 kts 12°
2026-04-21 14:31 43.18599 5.66957 35927 ft 443 kts 12°
2026-04-21 14:31 43.24444 5.69625 35929 ft 442 kts 12°
2026-04-21 14:32 43.30244 5.72278 35920 ft 442 kts 12°
2026-04-21 14:32 43.36082 5.74945 35918 ft 442 kts 12°
2026-04-21 14:33 43.41920 5.77612 35916 ft 442 kts 12°
2026-04-21 14:33 43.47753 5.80293 35913 ft 442 kts 12°
2026-04-21 14:34 43.53582 5.82991 35908 ft 442 kts 12°
2026-04-21 14:34 43.59409 5.85678 35907 ft 441 kts 12°
2026-04-21 14:35 43.65234 5.88363 35890 ft 441 kts 12°
2026-04-21 14:35 43.70070 5.90595 35900 ft 441 kts 12°
2026-04-21 14:36 43.75888 5.93300 35895 ft 441 kts 12°
2026-04-21 14:36 43.81700 5.96015 35896 ft 441 kts 12°
2026-04-21 14:37 43.87507 5.98724 35902 ft 440 kts 11°
2026-04-21 14:37 43.93308 6.01431 35904 ft 440 kts 11°
2026-04-21 14:38 43.99103 6.04146 35908 ft 439 kts 11°
2026-04-21 14:38 44.04887 6.06846 35906 ft 438 kts 11°
2026-04-21 14:39 44.10662 6.09557 35903 ft 438 kts 11°
2026-04-21 14:39 44.16427 6.12282 35904 ft 437 kts 11°
2026-04-21 14:40 44.22186 6.15002 35906 ft 437 kts 11°
2026-04-21 14:40 44.27948 6.17716 35907 ft 437 kts 11°
2026-04-21 14:41 44.33699 6.20442 35916 ft 436 kts 11°
2026-04-21 14:41 44.39447 6.23172 35917 ft 436 kts 11°
2026-04-21 14:42 44.45185 6.25906 35922 ft 435 kts 12°
2026-04-21 14:42 44.50918 6.28641 35904 ft 434 kts 11°
2026-04-21 14:43 44.56649 6.31368 35917 ft 436 kts 11°
2026-04-21 14:43 44.62341 6.34098 35917 ft 435 kts 12°
2026-04-21 14:44 44.68067 6.36860 35918 ft 435 kts 12°
2026-04-21 14:44 44.73798 6.39620 35922 ft 435 kts 12°
2026-04-21 14:45 44.79529 6.42374 35931 ft 435 kts 12°
2026-04-21 14:45 44.85260 6.45135 35939 ft 436 kts 12°
2026-04-21 14:46 44.91001 6.47907 35946 ft 437 kts 12°
2026-04-21 14:46 44.96740 6.50687 35944 ft 436 kts 12°
2026-04-21 14:47 45.02477 6.53475 35955 ft 436 kts 12°
2026-04-21 14:47 45.08210 6.56270 35960 ft 436 kts 12°
2026-04-21 14:48 45.13766 6.59904 35959 ft 444 kts 21°
2026-04-21 14:48 45.19164 6.64038 35963 ft 444 kts 21°
2026-04-21 14:49 45.24631 6.68246 35967 ft 444 kts 21°
2026-04-21 14:49 45.30033 6.72408 35969 ft 445 kts 21°
2026-04-21 14:50 45.35479 6.76605 35969 ft 445 kts 21°
2026-04-21 14:50 45.40921 6.80818 35968 ft 446 kts 21°
2026-04-21 14:51 45.46365 6.85040 35966 ft 446 kts 21°
2026-04-21 14:51 45.51810 6.89262 35959 ft 445 kts 21°
2026-04-21 14:52 45.57254 6.93500 35961 ft 446 kts 21°
2026-04-21 14:52 45.62704 6.97757 35954 ft 447 kts 21°
2026-04-21 14:53 45.68154 7.02016 35938 ft 446 kts 21°
2026-04-21 14:53 45.73597 7.06281 35930 ft 446 kts 21°
2026-04-21 14:54 45.79038 7.10550 35924 ft 446 kts 21°
2026-04-21 14:54 45.84478 7.14831 35914 ft 446 kts 21°
2026-04-21 14:55 45.89917 7.19116 35919 ft 446 kts 21°
2026-04-21 14:55 45.95351 7.23422 35932 ft 446 kts 21°
2026-04-21 14:56 46.00783 7.27730 35969 ft 446 kts 21°
2026-04-21 14:56 46.06209 7.32047 35972 ft 446 kts 21°
2026-04-21 14:57 46.11633 7.36368 35969 ft 445 kts 22°
2026-04-21 14:57 46.17042 7.40678 35978 ft 445 kts 21°
2026-04-21 14:58 46.22458 7.45008 35979 ft 445 kts 22°
2026-04-21 14:58 46.27836 7.49325 35982 ft 445 kts 21°
2026-04-21 14:59 46.33242 7.53663 35988 ft 444 kts 21°
2026-04-21 14:59 46.38638 7.58015 36003 ft 444 kts 21°
2026-04-21 15:00 46.44037 7.62378 36009 ft 444 kts 22°
2026-04-21 15:00 46.49433 7.66736 36002 ft 443 kts 21°
2026-04-21 15:01 46.54824 7.71101 36013 ft 444 kts 22°
2026-04-21 15:01 46.60211 7.75481 36025 ft 444 kts 22°
2026-04-21 15:02 46.65596 7.79882 36035 ft 444 kts 22°
2026-04-21 15:02 46.70975 7.84275 36045 ft 443 kts 22°
2026-04-21 15:03 46.76356 7.88674 36052 ft 444 kts 22°
2026-04-21 15:03 46.81709 7.93058 36049 ft 444 kts 22°
2026-04-21 15:04 46.87091 7.97485 36048 ft 444 kts 22°
2026-04-21 15:04 46.92474 8.01922 36064 ft 444 kts 21°
2026-04-21 15:05 46.97860 8.06367 36072 ft 444 kts 22°
2026-04-21 15:05 47.05935 8.13052 36079 ft 444 kts 22°
2026-04-21 15:06 47.11318 8.17524 36078 ft 445 kts 22°
2026-04-21 15:06 47.16699 8.22006 36081 ft 444 kts 22°
2026-04-21 15:07 47.22071 8.26500 36082 ft 444 kts 22°
2026-04-21 15:07 47.27449 8.30995 36079 ft 444 kts 22°
2026-04-21 15:08 47.32789 8.35598 36105 ft 447 kts 25°
2026-04-21 15:08 47.38003 8.40631 36103 ft 449 kts 27°
2026-04-21 15:09 47.43172 8.45808 36105 ft 449 kts 27°
2026-04-21 15:09 47.48367 8.50913 36108 ft 448 kts 26°
2026-04-21 15:10 47.53548 8.55923 36107 ft 448 kts 26°
2026-04-21 15:10 47.58760 8.60984 36107 ft 448 kts 27°
2026-04-21 15:11 47.63965 8.66067 36103 ft 448 kts 27°
2026-04-21 15:11 47.69169 8.71166 36112 ft 448 kts 27°
2026-04-21 15:12 47.74368 8.76280 36122 ft 448 kts 27°
2026-04-21 15:12 47.79568 8.81398 36130 ft 448 kts 27°
2026-04-21 15:13 47.84768 8.86518 36134 ft 448 kts 27°
2026-04-21 15:13 47.89963 8.91656 36138 ft 448 kts 27°
2026-04-21 15:14 47.95154 8.96798 36137 ft 448 kts 28°
2026-04-21 15:14 48.00342 9.01956 36143 ft 448 kts 28°
2026-04-21 15:15 48.05527 9.07123 36144 ft 448 kts 28°
2026-04-21 15:15 48.10711 9.12304 36149 ft 448 kts 28°
2026-04-21 15:16 48.16041 9.16987 36150 ft 439 kts 17°
2026-04-21 15:16 48.21866 9.19145 36151 ft 428 kts
2026-04-21 15:17 48.27788 9.20118 36142 ft 428 kts
2026-04-21 15:17 48.33715 9.21122 36144 ft 429 kts
2026-04-21 15:18 48.39646 9.22140 36150 ft 429 kts
2026-04-21 15:18 48.45592 9.23154 36157 ft 430 kts
2026-04-21 15:19 48.51549 9.24177 36163 ft 431 kts
2026-04-21 15:19 48.56455 9.25010 36166 ft 431 kts
2026-04-21 15:20 48.60598 9.25709 36164 ft 431 kts
2026-04-21 15:21 48.66559 9.26679 36164 ft 431 kts
2026-04-21 15:21 48.72529 9.27571 36165 ft 431 kts
2026-04-21 15:22 48.78440 9.27266 36167 ft 422 kts 340°
2026-04-21 15:22 48.83863 9.23917 36159 ft 421 kts 335°
2026-04-21 15:23 48.89244 9.20396 36154 ft 422 kts 335°
2026-04-21 15:23 48.94638 9.16870 36156 ft 422 kts 335°
2026-04-21 15:24 49.00044 9.13335 36153 ft 423 kts 335°
2026-04-21 15:24 49.05456 9.09784 36161 ft 424 kts 335°
2026-04-21 15:25 49.10872 9.06218 36162 ft 424 kts 335°
2026-04-21 15:25 49.16257 9.02676 36167 ft 425 kts 335°
2026-04-21 15:26 49.21685 8.99097 36175 ft 425 kts 335°
2026-04-21 15:26 49.27112 8.95501 36176 ft 425 kts 335°
2026-04-21 15:27 49.32547 8.91903 36180 ft 425 kts 335°
2026-04-21 15:27 49.37099 8.88881 36188 ft 426 kts 335°
2026-04-21 15:28 49.42499 8.85283 36192 ft 426 kts 335°
2026-04-21 15:28 49.47926 8.81645 36192 ft 426 kts 335°
2026-04-21 15:29 49.53354 8.78006 36196 ft 426 kts 335°
2026-04-21 15:29 49.58783 8.74374 36194 ft 426 kts 336°
2026-04-21 15:30 49.64220 8.70731 36195 ft 426 kts 336°
2026-04-21 15:30 49.69648 8.67069 36198 ft 426 kts 335°
2026-04-21 15:31 49.75070 8.63392 36198 ft 426 kts 335°
2026-04-21 15:31 49.80497 8.59710 36215 ft 426 kts 335°
2026-04-21 15:32 49.85925 8.56021 36214 ft 426 kts 336°
2026-04-21 15:32 49.90953 8.51266 35054 ft 426 kts 320°
2026-04-21 15:33 49.93219 8.48221 33275 ft 436 kts 319°
2026-04-21 15:33 49.95473 8.45038 31789 ft 437 kts 318°
2026-04-21 15:33 49.97688 8.41846 30582 ft 432 kts 317°
2026-04-21 15:33 49.99843 8.38731 29336 ft 425 kts 318°
2026-04-21 15:34 50.01995 8.35642 28129 ft 418 kts 318°
2026-04-21 15:34 50.04124 8.32624 26997 ft 410 kts 319°
2026-04-21 15:34 50.06223 8.29677 25912 ft 403 kts 319°
2026-04-21 15:34 50.08296 8.26786 24873 ft 397 kts 319°
2026-04-21 15:35 50.10341 8.23940 23862 ft 391 kts 319°
2026-04-21 15:35 50.12353 8.21132 22714 ft 386 kts 320°
2026-04-21 15:35 50.14339 8.18335 21621 ft 382 kts 320°
2026-04-21 15:35 50.16298 8.15557 20577 ft 379 kts 319°
2026-04-21 15:36 50.18239 8.12800 19560 ft 376 kts 320°
2026-04-21 15:36 50.20166 8.10060 18576 ft 374 kts 320°
2026-04-21 15:36 50.22084 8.07340 17495 ft 371 kts 320°
2026-04-21 15:36 50.23989 8.04647 16486 ft 368 kts 320°
2026-04-21 15:37 50.25879 8.01976 15549 ft 364 kts 320°
2026-04-21 15:37 50.27713 7.99367 15082 ft 348 kts 320°
2026-04-21 15:37 50.29462 7.96865 14647 ft 334 kts 320°
2026-04-21 15:37 50.31156 7.94445 14223 ft 328 kts 320°
2026-04-21 15:38 50.32847 7.92038 13762 ft 329 kts 320°
2026-04-21 15:38 50.34538 7.89630 13316 ft 328 kts 320°
2026-04-21 15:38 50.36224 7.87227 12874 ft 327 kts 320°
2026-04-21 15:38 50.37902 7.84832 12425 ft 326 kts 320°
2026-04-21 15:39 50.39574 7.82442 11982 ft 325 kts 320°
2026-04-21 15:39 50.41240 7.80054 11536 ft 324 kts 320°
2026-04-21 15:39 50.42898 7.77674 11083 ft 323 kts 320°
2026-04-21 15:39 50.44553 7.75299 10631 ft 322 kts 320°
2026-04-21 15:40 50.46187 7.72948 10432 ft 313 kts 320°
2026-04-21 15:40 50.47760 7.70680 10299 ft 301 kts 320°
2026-04-21 15:40 50.49282 7.68479 10073 ft 294 kts 320°
2026-04-21 15:40 50.50783 7.66311 9629 ft 296 kts 320°
2026-04-21 15:41 50.52294 7.64149 9312 ft 291 kts 321°
2026-04-21 15:41 50.53793 7.62020 8893 ft 290 kts 321°
2026-04-21 15:41 50.55286 7.59908 8489 ft 288 kts 321°
2026-04-21 15:41 50.56757 7.57821 7893 ft 283 kts 321°
2026-04-21 15:42 50.58212 7.55756 7215 ft 280 kts 321°
2026-04-21 15:42 50.59631 7.53741 6571 ft 277 kts 321°
2026-04-21 15:42 50.61071 7.51695 5856 ft 274 kts 321°
2026-04-21 15:42 50.62453 7.49726 5314 ft 266 kts 321°
2026-04-21 15:43 50.63764 7.47847 5133 ft 243 kts 321°
2026-04-21 15:43 50.64966 7.46120 5026 ft 228 kts 321°
2026-04-21 15:43 50.66130 7.44455 4798 ft 227 kts 322°
2026-04-21 15:43 50.67291 7.42799 4612 ft 222 kts 321°
2026-04-21 15:44 50.68410 7.41196 4482 ft 213 kts 322°
2026-04-21 15:44 50.69480 7.39661 4397 ft 204 kts 322°
2026-04-21 15:44 50.70520 7.38172 4313 ft 200 kts 322°
2026-04-21 15:44 50.71552 7.36695 4064 ft 200 kts 322°
2026-04-21 15:45 50.72579 7.35223 3738 ft 200 kts 322°
2026-04-21 15:45 50.73604 7.33755 3442 ft 199 kts 322°
2026-04-21 15:45 50.74617 7.32299 3162 ft 194 kts 322°
2026-04-21 15:45 50.75572 7.30919 3017 ft 176 kts 322°
2026-04-21 15:46 50.76422 7.29686 2999 ft 157 kts 323°
2026-04-21 15:46 50.77205 7.28554 2996 ft 149 kts 323°
2026-04-21 15:46 50.77982 7.27441 2717 ft 152 kts 323°
2026-04-21 15:46 50.78773 7.26305 2293 ft 155 kts 323°
2026-04-21 15:47 50.79552 7.25181 2011 ft 148 kts 323°
2026-04-21 15:47 50.80296 7.24109 1778 ft 142 kts 323°
2026-04-21 15:47 50.81023 7.23061 1580 ft 141 kts 323°
2026-04-21 15:47 50.81743 7.22024 1381 ft 139 kts 323°
2026-04-21 15:48 50.82455 7.20996 1182 ft 138 kts 322°
2026-04-21 15:48 50.83174 7.19959 989 ft 141 kts 322°
2026-04-21 15:48 50.83896 7.18915 791 ft 140 kts 321°
2026-04-21 15:48 50.84607 7.17886 601 ft 136 kts 322°
2026-04-21 15:49 50.85300 7.16881 403 ft 134 kts 322°
2026-04-21 15:49 50.85973 7.15910 302 ft 121 kts 319°
2026-04-21 15:49 50.86474 7.15188 281 ft 72 kts 317°
2026-04-21 15:49 50.86737 7.14806 268 ft 35 kts 318°
2026-04-21 15:50 50.86860 7.14533 261 ft 25 kts 289°
2026-04-21 15:50 50.86890 7.14302 257 ft 17 kts 281°
2026-04-21 15:50 50.86913 7.14115 255 ft 17 kts 278°
2026-04-21 15:50 50.86937 7.13919 249 ft 20 kts 295°
2026-04-21 15:51 50.87017 7.13786 243 ft 7 kts 308°
2026-04-21 15:51 50.86996 7.13729 243 ft 2 kts 225°
2026-04-21 15:51 50.86988 7.13716 243 ft 1 kts 224°
2026-04-21 15:51 50.86969 7.13684 243 ft 6 kts 227°
2026-04-21 15:52 50.86956 7.13661 243 ft 0 kts 227°